Torna al catalogo

HEAD-3B

AttivoComunicazioniLEO
NORAD 57627·PAYLOAD·🇨🇳 China

Lanciato Aug 14, 2023 da Xichang Satellite Launch Center

Loading…

Prossimi Passaggi (prossime 24 ore)

TLE

AggiornatoSource: Space-Track

Epoca: Sep 14, 2026, 10:05 UTC

1 57627U 23121B   26257.42016586  .00000374  00000-0  10647-3 0  9995
2 57627  45.0016 225.4487 0006137   0.1119 359.9739 14.61695824164727

Traccia HEAD-3B in tempo reale con AllMySat

Download on the App Store